STARLINK-36597, 67613

Orbit data source: Space-Track

STARLINK-36597, 67613 is a payload satellite owned by SpaceX/Seattle (US) in SSO that was launched on Thu, 29 Jan 2026 UTC via an FALCON 9 launch vehicle from the Air Force Western Test Range (AFWTR). Payload-class satellites include a variety of spacecraft equipped with specific instruments for various scientific and technological missions. These include communications satellites like Starlink; space stations such as the ISS; scientific satellites like the Hubble; Earth observation satellites from companies like Planet Labs, Umbra, and HawkEye 360; GPS; miniature CubeSats for education and research; and military/defense satellites.

Loading next visibility...
Identifier
67613, 2026-018AA
Orbit
SSO
Country
Flag of USUS
Related business
Manufacturer
SpaceX/Seattle
Mission
Operational Commercial Communications
Bus & Motor
STARLINK V2MO, Unknown motor
Mass
575 kg wet, ~530 kg dry
Launch date (UTC)
2026-01-29 (5 months ago)
Launch vehicle
FALCON 9
Launch site
Air Force Western Test Range (AFWTR)
Object type
Payload
Rocket body
Debris
Shape & HBR
Box + 2 Pan, 17.7 m
Radar Cross Section
36.964 m², Large (>1 m²)

Expand to show TLE details & history
Last TLE update: 1 day ago

TLE from 1 day ago
0 STARLINK-36597
1 67613U 26018AA  26170.75068220  .00014255  00000-0  44291-3 0  9996
2 67613  97.2840 235.4909 0001112 247.9297 112.1828 15.33453370 22979
Epoch: 2026-06-19T18:00Z
TLE epoch observation values (Epoch: 2026-06-19T18:00:58.942Z)
Latitude
0.00003°
Longitude
57.27013°
Altitude
468.918 km
Speed
7.632 km/s
True Right ascension
15h 41m 57s
True Declination
0° 00' 00"
Sunlit
Object was in full shadow at epoch
Visualization orbit readout
Latitude
Unknown
Longitude
Unknown
Altitude
Unknown
Speed
Unknown
Apparent Right ascension
Unknown
Apparent Declination
Unknown
Sunlit
N/A
Visualization observer readout
Local Sidereal Time
07:16:34
Azimuth
Unknown
Elevation
Unknown
Doppler factor
Unknown
Orbital elements
Apogee altitude
463.222 km
Perigee altitude
461.7 km
Semi-major axis
6,840.598 km
Eccentricity
0.00011
Inclination
97.284°
RAAN
235.4909°
Arg. of periapsis
247.9297°
True anomaly
112.1946°
Mean anomaly
112.1828°
Eccentric anomaly
112.1887°
Mean motion
3.83621 °/min
Orbital period
93.84 mins
BSTAR
0.00044291
Loading maneuver chart data...
Computing Atmospheric mass density...
Loading historical data...
Loading historical data...
Loading historical data...
Loading historical data...
Loading historical data...
Loading historical data...
Loading historical data...

Documentation

Showing up to 5 results
|